This is the latest recevied weather packets stored in our database for station/object KD8OUK. If no packets are shown the sender has not sent any weather packets the latest 10 day(s).
| Time | Temp. | Humidity | Pressure | Rain* | Wind** | Luminosity | Snow |
|---|---|---|---|---|---|---|---|
| 1777259125 | 10° C | 99% | 1019.8 hPa | 0 mm | - | - | - |
| 1777258818 | 10° C | 99% | 1019.9 hPa | 0 mm | - | - | - |
| 1777258527 | 10° C | 99% | 1019.9 hPa | 0 mm | - | - | - |
| 1777258219 | 10° C | 99% | 1019.9 hPa | 0 mm | - | - | - |
| 1777257929 | 9.44° C | 99% | 1019.9 hPa | 0 mm | - | - | - |
| 1777257621 | 9.44° C | 99% | 1019.9 hPa | 0 mm | - | - | - |
| 1777257325 | 9.44° C | 99% | 1020.2 hPa | 0 mm | - | - | - |
| 1777257025 | 9.44° C | 99% | 1020.2 hPa | 0 mm | - | - | - |
| 1777256716 | 9.44° C | 98% | 1020.2 hPa | 0 mm | - | - | - |
| 1777256420 | 9.44° C | 94% | 1020.2 hPa | 0 mm | - | - | - |
| 1777256118 | 9.44° C | 94% | 1020.2 hPa | 0 mm | - | - | - |
| 1777255816 | 10° C | 93% | 1020.2 hPa | 0 mm | - | - | - |
| 1777255520 | 10° C | 92% | 1020.2 hPa | 0 mm | - | - | - |
| 1777255230 | 10.56° C | 91% | 1020.2 hPa | 0 mm | - | - | - |
| 1777254923 | 10.56° C | 91% | 1020.2 hPa | 0 mm | - | - | - |
| 1777254632 | 11.11° C | 90% | 1020 hPa | 0 mm | - | - | - |
| 1777254324 | 11.67° C | 90% | 1019.8 hPa | 0 mm | - | - | - |
| 1777254017 | 11.67° C | 89% | 1019.8 hPa | 0 mm | - | - | - |
| 1777253727 | 11.67° C | 89% | 1019.5 hPa | 0 mm | - | - | - |
| 1777253419 | 11.67° C | 89% | 1019.5 hPa | 0 mm | - | - | - |
| 1777253129 | 12.22° C | 89% | 1019.4 hPa | 0 mm | - | - | - |
| 1777252821 | 12.22° C | 88% | 1019.3 hPa | 0 mm | - | - | - |
| 1777252532 | 12.22° C | 88% | 1019.3 hPa | 0 mm | - | - | - |
| 1777252224 | 12.22° C | 87% | 1019.1 hPa | 0 mm | - | - | - |
| 1777251916 | 12.78° C | 87% | 1019.1 hPa | 0 mm | - | - | - |
* Rain latest hour (hover to see other rain measurements)
** Current wind speed in m/s (hover to see current wind gust speed)